Вернуться в каталог

COSMOS 2141

GLONASS

АктивенНавигацияMEO
NORAD 21218·PAYLOAD·🇷🇺 Russia

Запущен Apr 4, 1991 с Baikonur Cosmodrome

Loading…

Ближайшие Пролёты (ближайшие 24 часа)

TLE

СвежийSource: Space-Track

Эпоха: Sep 14, 2026, 07:53 UTC

1 21218U 91025C   26257.32854491 -.00000038  00000-0  00000-0 0  9991
2 21218  64.2835 301.0572 0006263 230.3389 128.0276  2.13103076275864

Отслеживайте COSMOS 2141 в реальном времени с AllMySat

Download on the App Store